This demonstration page uses our WeatherBlox Daily Observations layout. Learn more.

Left ArrowRight Arrow

39.92423, -83.80882

Hourly Observations for June 26, 2022

Temp ( °F °C ) Dew Point ( °F °C ) Humidity (%) Winds ( mph kmh ) Pressure ( in mb ) Visibility ( mi km ) Precip ( " mm )
12:56 am 00:56 Mostly Cloudy 75 23.9 70 21.1 84 84 S 7 11 30.02 1017 10 16 0.00 0.00
1:56 am 01:56 Cloudy 75 23.9 71 21.7 88 88 S 6 9 30.01 1016 10 16 0.00 0.00
2:56 am 02:56 Cloudy 75 23.9 73 22.8 94 94 Calm 30.01 1016 10 16 0.01 0.25
3:56 am 03:56 Partly Cloudy 74 23.3 72 22.2 94 94 S 6 9 30.01 1016 10 16 0.00 0.00
4:56 am 04:56 Mostly Cloudy 74 23.3 74 23.3 100 100 S 5 7 30.01 1016 10 16 0.00 0.00
5:56 am 05:56 Mostly Cloudy 73 23 N/A N/A S 6 9 30.00 1016 10 16 0.00 0.00
6:56 am 06:56 Mostly Sunny 73 23 N/A N/A S 7 11 29.99 1016 10 16 0.00 0.00
7:56 am 07:56 Sunny 73 23 N/A N/A WSW 5 7 30.01 1016 10 16 0.00 0.00
8:56 am 08:56 Sunny 77 25 76 24.4 96 96 SW 9 15 30.01 1016 10 16 0.00 0.00
9:56 am 09:56 Sunny 80 26.7 71 21.7 74 74 W 9 15 30.02 1017 10 16 0.00 0.00
10:56 am 10:56 Partly Cloudy 81 27.2 68 20 65 65 WNW 9 15 30.02 1017 10 16 0.00 0.00
11:56 am 11:56 Sunny 81 27.2 67 19.4 62 62 WNW 10 17 30.04 1017 10 16 0.00 0.00
12:56 pm 12:56 Sunny 84 28.9 68 20 59 59 W 8 13 30.03 1017 10 16 0.00 0.00
1:56 pm 13:56 Mostly Cloudy 86 30 68 20 55 55 WSW 16 26 30.02 1017 10 16 0.00 0.00
2:56 pm 14:56 Mostly Cloudy 87 30.6 68 20 53 53 WSW 15 24 30.00 1016 10 16 0.00 0.00
3:56 pm 15:56 Cloudy 85 29.4 68 20 57 57 WSW 13 20 29.98 1015 10 16 0.00 0.00
4:37 pm 16:37 Cloudy with Strong Thunderstorms 73 23 73 23 100 100 NNW 16 26 29.99 1016 3 5 0.00 0.00
4:56 pm 16:56 Cloudy with Light Rain N/A N/A N/A NNW 8 13 N/A 10 16 0.00 0.00
5:56 pm 17:56 Mostly Sunny 77 25 N/A N/A W 8 13 30.00 1016 7 11 0.00 0.00
6:56 pm 18:56 Sunny 77 25 N/A N/A W 6 9 29.98 1015 10 16 0.00 0.00
7:56 pm 19:56 Sunny 75 24 N/A N/A SW 6 9 29.98 1015 9 14 0.00 0.00
8:56 pm 20:56 Partly Cloudy N/A N/A N/A SSW 6 9 N/A 7 11 0.00 0.00
9:56 pm 21:56 Mostly Cloudy N/A N/A N/A SW 3 6 N/A 7 11 0.00 0.00
10:15 pm 22:15 Cloudy with Heavy Rain 73 23 N/A N/A SW 15 24 30.01 1016 3 5 0.00 0.00
10:46 pm 22:46 Cloudy 73 23 N/A N/A NNW 7 11 30.03 1017 10 16 0.00 0.00
10:56 pm 22:56 Cloudy 73 22.8 71 21.7 94 94 NW 6 9 30.05 1018 10 16 0.00 0.00
11:56 pm 23:56 Cloudy 71 21.7 71 21.7 100 100 NNW 7 11 30.06 1018 10 16 0.00 0.00

Powered by AerisWeather